�N����,����,�g�[���i���ԁj���x,�g�[�����x,��g�[���i���ցj���x,����
 2003/04/01, 0:00,21.6,54,18.8,19.6
 2003/04/01, 0:15,21.5,55,18.8,19.6
 2003/04/01, 0:30,21.5,54,18.9,19.6
 2003/04/01, 0:45,21.3,55,18.8,19.6
 2003/04/01, 1:00,21.3,55,18.8,19.6
 2003/04/01, 1:15,21.3,55,18.7,19.6
 2003/04/01, 1:30,21.2,55,18.8,19.6
 2003/04/01, 1:45,21.2,55,18.8,19.6
 2003/04/01, 2:00,21.1,56,18.8,19.6
 2003/04/01, 2:15,21,55,18.8,19.6
 2003/04/01, 2:30,21,56,18.9,19.6
 2003/04/01, 2:45,21,55,18.9,19.6
 2003/04/01, 3:00,20.9,56,18.9,19.6
 2003/04/01, 3:15,21,56,18.9,19.6
 2003/04/01, 3:30,21,56,18.8,19.6
 2003/04/01, 3:45,20.9,56,18.8,19.6
 2003/04/01, 4:00,20.9,56,18.8,19.6
 2003/04/01, 4:15,20.9,57,18.8,19.6
 2003/04/01, 4:30,20.9,56,18.8,19.6
 2003/04/01, 4:45,21,56,18.8,19.6
 2003/04/01, 5:00,20.9,56,18.7,19.6
 2003/04/01, 5:15,20.9,57,18.8,19.6
 2003/04/01, 5:30,20.8,56,18.8,19.6
 2003/04/01, 5:45,20.7,56,18.8,19.6
 2003/04/01, 6:00,20.7,56,18.9,19.6
 2003/04/01, 6:15,20.8,56,18.9,19.6
 2003/04/01, 6:30,20.8,56,19,19.6
 2003/04/01, 6:45,21,56,19,19.6
 2003/04/01, 7:00,20.9,58,19.2,19.8
 2003/04/01, 7:15,20.5,57,19.2,19.8
 2003/04/01, 7:30,20.8,56,19.3,19.8
 2003/04/01, 7:45,20.7,56,19.3,19.8
 2003/04/01, 8:00,20.6,54,19,19.8
 2003/04/01, 8:15,20.6,53,19,19.8
 2003/04/01, 8:30,20.5,52,18.8,19.7
 2003/04/01, 8:45,20.5,52,18.8,19.8
 2003/04/01, 9:00,20.5,54,19,19.8
 2003/04/01, 9:15,20.5,54,19,19.8
 2003/04/01, 9:30,20.5,54,19,19.8
 2003/04/01, 9:45,20.5,55,19,19.8
 2003/04/01,10:00,20.5,55,19.1,19.8
 2003/04/01,10:15,20.5,54,19.1,19.8
 2003/04/01,10:30,20.5,54,19.2,19.8
 2003/04/01,10:45,20.4,54,19.2,19.8
 2003/04/01,11:00,20.5,54,19.3,19.8
 2003/04/01,11:15,20.5,53,19.3,19.8
 2003/04/01,11:30,20.5,54,19.3,19.8
 2003/04/01,11:45,20.6,53,19.3,19.8
 2003/04/01,12:00,20.6,54,19.3,19.8
 2003/04/01,12:15,20.6,54,19.3,19.8
 2003/04/01,12:30,20.7,53,19.4,19.8
 2003/04/01,12:45,20.7,53,19.4,19.8
 2003/04/01,13:00,20.6,53,19.4,19.9
 2003/04/01,13:15,20.7,53,19.5,19.9
 2003/04/01,13:30,20.6,53,19.5,19.9
 2003/04/01,13:45,20.6,53,19.5,19.9
 2003/04/01,14:00,20.6,53,19.5,19.9
 2003/04/01,14:15,20.6,53,19.4,19.9
 2003/04/01,14:30,20.6,53,19.4,19.9
 2003/04/01,14:45,20.6,53,19.4,19.9
 2003/04/01,15:00,20.7,52,19.5,19.9
 2003/04/01,15:15,20.6,52,19.5,19.9
 2003/04/01,15:30,20.6,52,19.4,19.9
 2003/04/01,15:45,20.6,52,19.4,19.9
 2003/04/01,16:00,20.6,52,19.4,19.9
 2003/04/01,16:15,20.5,52,19.4,19.9
 2003/04/01,16:30,20.5,52,19.4,19.9
 2003/04/01,16:45,20.5,52,19.4,19.9
 2003/04/01,17:00,20.5,52,19.4,19.9
 2003/04/01,17:15,20.5,52,19.4,19.9
 2003/04/01,17:30,20.5,51,19.5,19.9
 2003/04/01,17:45,20.4,51,19.4,19.9
 2003/04/01,18:00,20.4,51,19.4,19.9
 2003/04/01,18:15,20.4,51,19.4,19.9
 2003/04/01,18:30,20.4,51,19.4,19.9
 2003/04/01,18:45,20.4,52,19.3,19.9
 2003/04/01,19:00,20.4,52,19.4,19.9
 2003/04/01,19:15,20.3,52,19.4,19.9
 2003/04/01,19:30,20.7,53,19.4,19.9
 2003/04/01,19:45,20.9,59,19.8,20
 2003/04/01,20:00,21.1,58,19.8,20.1
 2003/04/01,20:15,21.2,58,20,20.2
 2003/04/01,20:30,21.5,55,19.8,20.2
 2003/04/01,20:45,21.6,55,19.5,20.2
 2003/04/01,21:00,21.6,53,19.3,20.1
 2003/04/01,21:15,21.7,53,19.4,20.1
 2003/04/01,21:30,21.5,53,19.4,20.1
 2003/04/01,21:45,21.4,53,19.4,20
 2003/04/01,22:00,21.4,53,19.4,20
 2003/04/01,22:15,21.4,52,19.4,20
 2003/04/01,22:30,21.4,52,19.5,20
 2003/04/01,22:45,21.3,52,19.4,20
 2003/04/01,23:00,21.2,52,19.5,20
 2003/04/01,23:15,21.2,52,19.4,20
 2003/04/01,23:30,21.2,53,19.3,20
 2003/04/01,23:45,21,52,19.4,20
 2003/04/02, 0:00,20.9,52,19.3,19.9
 2003/04/02, 0:15,20.8,52,19.3,19.9
 2003/04/02, 0:30,20.8,53,19.3,19.9
 2003/04/02, 0:45,20.8,53,19.3,19.9
 2003/04/02, 1:00,20.7,53,19.3,19.9
 2003/04/02, 1:15,20.6,53,19.3,19.9
 2003/04/02, 1:30,20.6,52,19.3,19.9
 2003/04/02, 1:45,20.6,52,19.3,19.9
 2003/04/02, 2:00,20.6,52,19.2,19.9
 2003/04/02, 2:15,20.5,52,19.2,19.9
 2003/04/02, 2:30,20.5,52,19.1,19.9
 2003/04/02, 2:45,20.4,52,19.1,19.8
 2003/04/02, 3:00,20.4,52,19.1,19.8
 2003/04/02, 3:15,20.3,52,19.1,19.8
 2003/04/02, 3:30,20.4,51,19.1,19.8
 2003/04/02, 3:45,20.3,51,19.1,19.8
 2003/04/02, 4:00,20.2,51,19.2,19.8
 2003/04/02, 4:15,20.2,51,19.1,19.8
 2003/04/02, 4:30,20.2,51,19.1,19.8
 2003/04/02, 4:45,20.2,52,19.1,19.8
 2003/04/02, 5:00,20.2,52,19.1,19.8
 2003/04/02, 5:15,20.1,52,19.1,19.8
 2003/04/02, 5:30,20.2,51,19,19.8
 2003/04/02, 5:45,20.1,52,19,19.8
 2003/04/02, 6:00,20.1,52,19.1,19.8
 2003/04/02, 6:15,20.1,53,19.1,19.8
 2003/04/02, 6:30,20.1,53,19,19.8
 2003/04/02, 6:45,20.2,53,19.1,19.8
 2003/04/02, 7:00,20.3,54,19.4,19.9
 2003/04/02, 7:15,20.4,54,19.1,19.9
 2003/04/02, 7:30,20.4,56,19.1,19.9
 2003/04/02, 7:45,20.4,55,19.2,20
 2003/04/02, 8:00,20.3,53,19.1,19.8
 2003/04/02, 8:15,20.3,51,19,19.8
 2003/04/02, 8:30,20.3,50,18.8,19.7
 2003/04/02, 8:45,20.2,51,19,19.7
 2003/04/02, 9:00,20.1,52,19,19.7
 2003/04/02, 9:15,20.2,52,19,19.7
 2003/04/02, 9:30,20.2,52,19.1,19.7
 2003/04/02, 9:45,20.1,52,19,19.7
 2003/04/02,10:00,20.1,52,19.1,19.6
 2003/04/02,10:15,20.2,52,19.1,19.7
 2003/04/02,10:30,20.2,52,19.1,19.6
 2003/04/02,10:45,20.3,51,19.2,19.7
 2003/04/02,11:00,20.2,51,19.3,19.6
 2003/04/02,11:15,20.2,51,19.3,19.6
 2003/04/02,11:30,20.2,51,19.4,19.6
 2003/04/02,11:45,20.2,51,19.4,19.6
 2003/04/02,12:00,20.3,51,19.4,19.7
 2003/04/02,12:15,20.4,51,19.5,19.7
 2003/04/02,12:30,20.4,50,19.6,19.7
 2003/04/02,12:45,20.4,50,19.5,19.7
 2003/04/02,13:00,20.4,50,19.7,19.7
 2003/04/02,13:15,20.5,50,19.6,19.7
 2003/04/02,13:30,20.4,50,19.6,19.7
 2003/04/02,13:45,20.4,51,19.6,19.7
 2003/04/02,14:00,20.5,51,19.6,19.8
 2003/04/02,14:15,20.4,51,19.5,19.8
 2003/04/02,14:30,20.5,50,19.5,19.8
 2003/04/02,14:45,20.4,50,19.5,19.8
 2003/04/02,15:00,20.4,51,19.5,19.8
 2003/04/02,15:15,20.4,51,19.5,19.8
 2003/04/02,15:30,20.4,51,19.5,19.8
 2003/04/02,15:45,20.4,51,19.4,19.8
 2003/04/02,16:00,20.4,52,19.4,19.8
 2003/04/02,16:15,20.4,52,19.5,19.8
 2003/04/02,16:30,20.3,52,19.4,19.8
 2003/04/02,16:45,20.3,53,19.3,19.8
 2003/04/02,17:00,20.3,52,19.3,19.8
 2003/04/02,17:15,20.4,53,19.3,19.8
 2003/04/02,17:30,20.3,53,19.3,19.8
 2003/04/02,17:45,20.4,53,19.1,19.8
 2003/04/02,18:00,20.3,53,19.1,19.8
 2003/04/02,18:15,20.3,53,19,19.8
 2003/04/02,18:30,20.3,53,19,19.8
 2003/04/02,18:45,20.3,53,19,19.8
 2003/04/02,19:00,20.3,53,19,19.8
 2003/04/02,19:15,20.4,54,19,19.8
 2003/04/02,19:30,20.3,54,19,19.8
 2003/04/02,19:45,20.3,54,19,19.8
 2003/04/02,20:00,20.3,54,19,19.7
 2003/04/02,20:15,20.2,54,19,19.8
 2003/04/02,20:30,20.2,54,19,19.7
 2003/04/02,20:45,20.2,54,19,19.8
 2003/04/02,21:00,20.3,54,19,19.8
 2003/04/02,21:15,20.4,52,19,19.8
 2003/04/02,21:30,20.7,52,19,19.8
 2003/04/02,21:45,20.7,50,18.9,19.8
 2003/04/02,22:00,20.6,49,18.7,19.8
 2003/04/02,22:15,20.8,49,18.8,19.7
 2003/04/02,22:30,20.9,50,18.8,19.7
 2003/04/02,22:45,20.7,51,19.5,19.8
 2003/04/02,23:00,21,52,19.4,19.8
 2003/04/02,23:15,20.9,52,19.3,19.7
 2003/04/02,23:30,21,51,19.3,19.7
 2003/04/02,23:45,21,51,19.2,19.7
 2003/04/03, 0:00,20.9,52,19.2,19.7
 2003/04/03, 0:15,20.8,53,19.1,19.7
 2003/04/03, 0:30,20.8,52,19.1,19.7
 2003/04/03, 0:45,20.8,51,19,19.6
 2003/04/03, 1:00,20.8,51,19.1,19.6
 2003/04/03, 1:15,20.8,52,19.1,19.6
 2003/04/03, 1:30,20.8,52,19,19.6
 2003/04/03, 1:45,20.8,52,19,19.6
 2003/04/03, 2:00,20.7,53,19,19.6
 2003/04/03, 2:15,20.7,53,19,19.6
 2003/04/03, 2:30,20.7,53,19,19.6
 2003/04/03, 2:45,20.7,53,19.1,19.6
 2003/04/03, 3:00,20.7,54,19.1,19.6
 2003/04/03, 3:15,20.7,54,19,19.6
 2003/04/03, 3:30,20.6,54,19,19.6
 2003/04/03, 3:45,20.7,53,19.1,19.6
 2003/04/03, 4:00,20.7,53,19.1,19.6
 2003/04/03, 4:15,20.6,53,19,19.6
 2003/04/03, 4:30,20.6,53,19,19.6
 2003/04/03, 4:45,20.6,53,19,19.6
 2003/04/03, 5:00,20.6,53,19,19.6
 2003/04/03, 5:15,20.6,54,19,19.6
 2003/04/03, 5:30,20.5,54,19,19.6
 2003/04/03, 5:45,20.5,54,19,19.6
 2003/04/03, 6:00,20.5,54,19,19.6
 2003/04/03, 6:15,20.5,54,19,19.6
 2003/04/03, 6:30,20.7,54,19.1,19.6
 2003/04/03, 6:45,21,54,19.6,19.7
 2003/04/03, 7:00,21.3,53,19.5,19.8
 2003/04/03, 7:15,21,49,19.6,19.8
 2003/04/03, 7:30,21.7,51,19.8,19.9
 2003/04/03, 7:45,21.9,49,19.9,20
 2003/04/03, 8:00,22,49,19.7,20
 2003/04/03, 8:15,21.9,49,19.5,20
 2003/04/03, 8:30,21.8,48,19.4,19.9
 2003/04/03, 8:45,21.6,48,19.4,20
 2003/04/03, 9:00,21.6,48,19.7,20
 2003/04/03, 9:15,21.6,49,19.8,20
 2003/04/03, 9:30,21.5,49,19.8,20
 2003/04/03, 9:45,21.5,50,19.9,20
 2003/04/03,10:00,21.4,50,19.8,20
 2003/04/03,10:15,21.4,50,19.8,20
 2003/04/03,10:30,21.3,50,19.9,20
 2003/04/03,10:45,21.3,49,19.9,20
 2003/04/03,11:00,21.2,50,19.9,20
 2003/04/03,11:15,21.2,49,19.9,20
 2003/04/03,11:30,21.2,48,19.9,20
 2003/04/03,11:45,21.2,48,20,20
 2003/04/03,12:00,21.2,48,20,20
 2003/04/03,12:15,21.2,48,20,20
 2003/04/03,12:30,21.2,49,20,20
 2003/04/03,12:45,21.2,48,20,20
 2003/04/03,13:00,21.1,49,20,20
 2003/04/03,13:15,21.1,48,20,20.1
 2003/04/03,13:30,21.1,48,20,20.1
 2003/04/03,13:45,21.1,49,20.1,20.1
 2003/04/03,14:00,21.1,49,20,20.1
 2003/04/03,14:15,21.2,48,20.1,20.1
 2003/04/03,14:30,21.2,48,20.1,20.2
 2003/04/03,14:45,21.2,49,20.1,20.2
 2003/04/03,15:00,21.2,49,20.2,20.2
 2003/04/03,15:15,21.2,48,20.2,20.2
 2003/04/03,15:30,21.2,48,20.3,20.2
 2003/04/03,15:45,21.2,49,20.2,20.2
 2003/04/03,16:00,21.2,49,20.3,20.2
 2003/04/03,16:15,21.2,49,20.2,20.3
 2003/04/03,16:30,21.2,48,20.3,20.3
 2003/04/03,16:45,21.2,48,20.5,20.3
 2003/04/03,17:00,21.2,48,20.6,20.4
 2003/04/03,17:15,21.2,48,20.9,20.4
 2003/04/03,17:30,21.2,48,21.2,20.4
 2003/04/03,17:45,21.2,48,21.1,20.4
 2003/04/03,18:00,21.1,48,20.7,20.4
 2003/04/03,18:15,21,48,20.4,20.4
 2003/04/03,18:30,21,48,20.2,20.3
 2003/04/03,18:45,20.9,48,20.2,20.3
 2003/04/03,19:00,20.9,48,20,20.3
 2003/04/03,19:15,20.9,48,19.9,20.2
 2003/04/03,19:30,20.8,49,19.9,20.2
 2003/04/03,19:45,20.8,49,20,20.2
 2003/04/03,20:00,20.8,49,20.1,20.2
 2003/04/03,20:15,20.7,49,20,20.2
 2003/04/03,20:30,20.7,49,20,20.2
 2003/04/03,20:45,20.7,49,20,20.2
 2003/04/03,21:00,20.6,49,20,20.1
 2003/04/03,21:15,20.7,49,20,20.2
 2003/04/03,21:30,20.8,50,20,20.2
 2003/04/03,21:45,20.8,50,20,20.2
 2003/04/03,22:00,20.8,50,19.9,20.2
 2003/04/03,22:15,20.8,51,19.9,20.2
 2003/04/03,22:30,20.6,49,19.9,20.2
 2003/04/03,22:45,18.5,45,19.9,20.1
 2003/04/03,23:00,20.6,45,19.8,20.1
 2003/04/03,23:15,20.8,47,19.8,20.1
 2003/04/03,23:30,20.8,49,19.9,20.2
 2003/04/03,23:45,21,49,20.2,20.2
 2003/04/04, 0:00,21.1,48,20,20.2
 2003/04/04, 0:15,21,47,19.9,20.2
 2003/04/04, 0:30,21.1,47,19.8,20.2
 2003/04/04, 0:45,20.8,47,19.8,20.2
 2003/04/04, 1:00,20.9,47,19.9,20.1
 2003/04/04, 1:15,21,47,19.9,20.1
 2003/04/04, 1:30,20.9,48,19.9,20.1
 2003/04/04, 1:45,21,48,19.9,20.1
 2003/04/04, 2:00,20.9,48,20,20.1
 2003/04/04, 2:15,20.8,48,20,20.1
 2003/04/04, 2:30,20.8,48,20,20.1
 2003/04/04, 2:45,20.7,48,20.1,20.1
 2003/04/04, 3:00,20.7,48,20,20.1
 2003/04/04, 3:15,20.6,48,20,20.1
 2003/04/04, 3:30,20.6,48,20,20.1
 2003/04/04, 3:45,20.6,48,20,20.1
 2003/04/04, 4:00,20.6,48,20,20.1
 2003/04/04, 4:15,20.6,48,20.1,20.1
 2003/04/04, 4:30,20.6,48,20,20.1
 2003/04/04, 4:45,20.5,47,20.1,20.1
 2003/04/04, 5:00,20.5,47,20,20.1
 2003/04/04, 5:15,20.5,47,20.1,20.1
 2003/04/04, 5:30,20.4,47,20,20.1
 2003/04/04, 5:45,20.4,47,20,20.1
 2003/04/04, 6:00,20.4,46,20,20.1
 2003/04/04, 6:15,20.4,47,20,20.1
 2003/04/04, 6:30,20.3,46,20,20.1
 2003/04/04, 6:45,20.3,46,20,20.1
 2003/04/04, 7:00,20.6,48,20.1,20.1
 2003/04/04, 7:15,20.5,48,20,20.1
 2003/04/04, 7:30,20.6,48,19.9,20.1
 2003/04/04, 7:45,20.6,47,19.9,20
 2003/04/04, 8:00,20.5,45,19.7,19.9
 2003/04/04, 8:15,20.5,44,19.6,19.9
 2003/04/04, 8:30,20.5,43,19.5,19.8
 2003/04/04, 8:45,20.5,44,19.6,19.9
 2003/04/04, 9:00,20.4,45,19.8,19.9
 2003/04/04, 9:15,20.5,45,19.8,19.9
 2003/04/04, 9:30,20.4,46,19.8,19.9
 2003/04/04, 9:45,20.4,46,19.8,19.9
 2003/04/04,10:00,20.4,45,19.8,19.9
 2003/04/04,10:15,20.4,46,19.9,19.8
 2003/04/04,10:30,20.4,46,19.8,19.8
 2003/04/04,10:45,20.4,46,19.9,19.8
 2003/04/04,11:00,20.4,46,19.8,19.8
 2003/04/04,11:15,20.4,46,19.8,19.8
 2003/04/04,11:30,20.4,47,19.8,19.8
 2003/04/04,11:45,20.4,47,19.8,19.8
 2003/04/04,12:00,20.4,47,19.8,19.8
 2003/04/04,12:15,20.4,47,19.8,19.8
 2003/04/04,12:30,20.3,48,19.8,19.8
 2003/04/04,12:45,20.3,48,19.8,19.8
 2003/04/04,13:00,20.3,48,19.8,19.8
 2003/04/04,13:15,20.3,48,19.9,19.8
 2003/04/04,13:30,20.3,48,19.8,19.8
 2003/04/04,13:45,20.3,48,19.9,19.8
 2003/04/04,14:00,20.3,48,19.8,19.8
 2003/04/04,14:15,20.3,48,19.9,19.8
 2003/04/04,14:30,20.3,48,19.8,19.8
 2003/04/04,14:45,20.3,48,19.8,19.8
 2003/04/04,15:00,20.3,48,19.9,19.7
 2003/04/04,15:15,20.3,48,19.8,19.8
 2003/04/04,15:30,20.2,49,19.7,19.7
 2003/04/04,15:45,20.2,49,19.8,19.7
 2003/04/04,16:00,20.2,49,19.7,19.7
 2003/04/04,16:15,20.2,49,19.7,19.7
 2003/04/04,16:30,20.2,49,19.7,19.7
 2003/04/04,16:45,20.1,49,19.7,19.7
 2003/04/04,17:00,20.2,49,19.7,19.7
 2003/04/04,17:15,20.2,48,19.6,19.7
 2003/04/04,17:30,20.1,49,19.6,19.7
 2003/04/04,17:45,20,49,19.6,19.6
 2003/04/04,18:00,20,48,19.7,19.6
 2003/04/04,18:15,20.1,48,19.6,19.6
 2003/04/04,18:30,20,49,19.5,19.6
 2003/04/04,18:45,20,49,19.6,19.6
 2003/04/04,19:00,20.1,48,19.5,19.6
 2003/04/04,19:15,20,48,19.5,19.6
 2003/04/04,19:30,20,48,19.5,19.6
 2003/04/04,19:45,20,48,19.5,19.6
 2003/04/04,20:00,20,48,19.5,19.5
 2003/04/04,20:15,20,48,19.5,19.5
 2003/04/04,20:30,20,48,19.6,19.5
 2003/04/04,20:45,20,48,19.5,19.5
 2003/04/04,21:00,20,48,19.5,19.5
 2003/04/04,21:15,19.9,48,19.5,19.5
 2003/04/04,21:30,20,49,19.4,19.5
 2003/04/04,21:45,20,49,19.5,19.5
 2003/04/04,22:00,20,49,19.4,19.5
 2003/04/04,22:15,20,49,19.5,19.5
 2003/04/04,22:30,20,49,19.4,19.5
 2003/04/04,22:45,20,49,19.4,19.5
 2003/04/04,23:00,20,49,19.5,19.6
 2003/04/04,23:15,20.2,50,19.5,19.6
 2003/04/04,23:30,20.2,51,19.4,19.5
 2003/04/04,23:45,20.2,50,19.3,19.4
 2003/04/05, 0:00,20.2,50,19.3,19.4
 2003/04/05, 0:15,20.3,49,19.3,19.4
 2003/04/05, 0:30,20.3,49,19.3,19.4
 2003/04/05, 0:45,20.3,49,19.3,19.4
 2003/04/05, 1:00,20.3,49,19.2,19.4
 2003/04/05, 1:15,20.5,50,19.5,19.5
 2003/04/05, 1:30,20.8,51,19.6,19.5
 2003/04/05, 1:45,20.9,51,19.5,19.6
 2003/04/05, 2:00,20.9,51,19.5,19.6
 2003/04/05, 2:15,20.8,52,19.5,19.6
 2003/04/05, 2:30,20.7,52,19.5,19.6
 2003/04/05, 2:45,20.5,52,19.5,19.6
 2003/04/05, 3:00,20.4,52,19.5,19.6
 2003/04/05, 3:15,20.3,52,19.6,19.6
 2003/04/05, 3:30,20.4,53,19.5,19.6
 2003/04/05, 3:45,20.4,53,19.4,19.6
 2003/04/05, 4:00,20.5,53,19.3,19.6
 2003/04/05, 4:15,20.5,53,19.3,19.6
 2003/04/05, 4:30,20.5,54,19.4,19.6
 2003/04/05, 4:45,20.5,54,19.4,19.6
 2003/04/05, 5:00,20.5,54,19.4,19.6
 2003/04/05, 5:15,20.5,54,19.4,19.6
 2003/04/05, 5:30,20.4,54,19.5,19.6
 2003/04/05, 5:45,20.4,54,19.5,19.6
 2003/04/05, 6:00,20.4,54,19.3,19.6
 2003/04/05, 6:15,20.4,54,19.4,19.6
 2003/04/05, 6:30,20.3,54,19.4,19.6
 2003/04/05, 6:45,20.4,54,19.4,19.6
 2003/04/05, 7:00,20.4,55,19.4,19.6
 2003/04/05, 7:15,20.4,55,19.4,19.6
 2003/04/05, 7:30,20.4,56,19.3,19.6
 2003/04/05, 7:45,20.3,56,19.3,19.6
 2003/04/05, 8:00,20.3,56,19.4,19.6
 2003/04/05, 8:15,20.3,55,19.3,19.6
 2003/04/05, 8:30,20.3,56,19.2,19.6
 2003/04/05, 8:45,20.4,54,19.3,19.5
 2003/04/05, 9:00,20.6,56,19.3,19.5
 2003/04/05, 9:15,20.4,60,19.3,19.7
 2003/04/05, 9:30,20.5,58,19.4,19.6
 2003/04/05, 9:45,20.3,61,19.3,19.9
 2003/04/05,10:00,20.4,59,19.3,19.9
 2003/04/05,10:15,20.3,58,19.1,19.8
 2003/04/05,10:30,20.2,58,19.1,19.8
 2003/04/05,10:45,20.2,57,19.2,19.8
 2003/04/05,11:00,20.2,56,19,19.7
 2003/04/05,11:15,20.1,56,19.1,19.7
 2003/04/05,11:30,20.2,56,19,19.7
 2003/04/05,11:45,20.1,55,19.1,19.7
 2003/04/05,12:00,20.1,54,19.1,19.6
 2003/04/05,12:15,20,53,19.1,19.6
 2003/04/05,12:30,20,53,18.9,19.6
 2003/04/05,12:45,20,53,19,19.6
 2003/04/05,13:00,20,53,18.9,19.5
 2003/04/05,13:15,20,52,18.8,19.5
 2003/04/05,13:30,19.9,52,18.8,19.5
 2003/04/05,13:45,19.9,51,18.9,19.4
 2003/04/05,14:00,19.9,51,18.7,19.4
 2003/04/05,14:15,19.8,51,18.8,19.4
 2003/04/05,14:30,19.7,50,18.6,19.3
 2003/04/05,14:45,19.9,50,18.6,19.3
 2003/04/05,15:00,20,49,18.6,19.3
 2003/04/05,15:15,20,51,18.6,19.3
 2003/04/05,15:30,20.1,50,18.5,19.2
 2003/04/05,15:45,20.2,49,18.6,19.2
 2003/04/05,16:00,20.2,49,18.5,19.2
 2003/04/05,16:15,20.4,49,18.6,19.2
 2003/04/05,16:30,20.4,49,18.7,19.2
 2003/04/05,16:45,20.6,49,18.7,19.2
 2003/04/05,17:00,20.7,50,18.6,19.2
 2003/04/05,17:15,20.6,51,19.1,19.3
 2003/04/05,17:30,20.7,49,18.8,19.3
 2003/04/05,17:45,20.8,50,18.6,19.3
 2003/04/05,18:00,21.1,47,18.5,19.2
 2003/04/05,18:15,21.3,45,18.6,19.2
 2003/04/05,18:30,21.2,46,18.6,19.2
 2003/04/05,18:45,21.3,45,18.4,19.1
 2003/04/05,19:00,21.3,45,18.5,19.1
 2003/04/05,19:15,21.4,46,18.4,19.1
 2003/04/05,19:30,21.3,46,18.3,19.1
 2003/04/05,19:45,21.3,46,18.3,19.1
 2003/04/05,20:00,21.3,46,18.3,19.1
 2003/04/05,20:15,20.9,47,18.4,19.3
 2003/04/05,20:30,20.7,46,18.3,19.1
 2003/04/05,20:45,20.5,45,18.2,19.1
 2003/04/05,21:00,20.3,45,18.2,19.1
 2003/04/05,21:15,20.3,44,18.3,19
 2003/04/05,21:30,20.1,45,18.3,19
 2003/04/05,21:45,20.2,45,18.3,19
 2003/04/05,22:00,20.1,47,17.9,18.9
 2003/04/05,22:15,21.1,46,18.1,19
 2003/04/05,22:30,21.5,48,18.1,19
 2003/04/05,22:45,21.6,49,18.2,19
 2003/04/05,23:00,21.8,49,18.1,19
 2003/04/05,23:15,21.6,48,18.1,18.9
 2003/04/05,23:30,21.6,48,18.1,18.9
 2003/04/05,23:45,21.7,48,18.1,18.9
 2003/04/06, 0:00,21.7,47,18,18.9
 2003/04/06, 0:15,21.7,47,18.1,18.9
 2003/04/06, 0:30,21.8,46,18.1,18.9
 2003/04/06, 0:45,21.8,45,18,18.9
 2003/04/06, 1:00,21.8,45,18,18.9
 2003/04/06, 1:15,21.9,45,17.9,18.8
 2003/04/06, 1:30,21.9,45,17.8,18.8
 2003/04/06, 1:45,21.9,45,17.8,18.8
 2003/04/06, 2:00,21.8,45,17.8,18.8
 2003/04/06, 2:15,21.3,45,18,18.9
 2003/04/06, 2:30,21.1,46,18,18.9
 2003/04/06, 2:45,20.9,46,18,18.9
 2003/04/06, 3:00,20.8,47,17.9,18.9
 2003/04/06, 3:15,20.7,48,17.9,18.8
 2003/04/06, 3:30,20.6,49,18,18.9
 2003/04/06, 3:45,20.6,49,18.1,18.9
 2003/04/06, 4:00,20.4,49,18.1,18.9
 2003/04/06, 4:15,20.4,49,18.1,18.9
 2003/04/06, 4:30,20.3,50,18.2,18.9
 2003/04/06, 4:45,20.3,50,18.1,18.9
 2003/04/06, 5:00,20.2,51,18.2,18.9
 2003/04/06, 5:15,20.3,51,18.2,18.9
 2003/04/06, 5:30,20.2,51,18.1,18.9
 2003/04/06, 5:45,20.2,51,18.2,18.9
 2003/04/06, 6:00,20.3,51,18.2,18.9
 2003/04/06, 6:15,20.6,51,18.3,18.9
 2003/04/06, 6:30,21.1,49,18.3,18.9
 2003/04/06, 6:45,21.6,49,18.2,18.9
 2003/04/06, 7:00,22,48,18.2,18.9
 2003/04/06, 7:15,22.3,47,18.3,19
 2003/04/06, 7:30,22.6,46,18.3,19
 2003/04/06, 7:45,22.8,46,18.3,19
 2003/04/06, 8:00,23.1,47,18.5,19
 2003/04/06, 8:15,23.3,47,18.5,19.1
 2003/04/06, 8:30,23.6,46,18.6,19.1
 2003/04/06, 8:45,23.4,46,18.5,19
 2003/04/06, 9:00,23.3,46,18.4,19
 2003/04/06, 9:15,23.2,46,18.2,19
 2003/04/06, 9:30,22.9,46,18.2,19
 2003/04/06, 9:45,22.8,45,18.3,19.1
 2003/04/06,10:00,22.3,43,18.6,19.4
 2003/04/06,10:15,21.6,41,19,19.4
 2003/04/06,10:30,21.8,43,19.1,19.5
 2003/04/06,10:45,21.7,46,19,19.6
 2003/04/06,11:00,21.3,45,18.7,19.6
 2003/04/06,11:15,21.2,44,18.8,19.5
 2003/04/06,11:30,21.1,44,18.7,19.6
 2003/04/06,11:45,21.1,44,18.7,19.6
 2003/04/06,12:00,21,43,18.7,19.5
 2003/04/06,12:15,20.9,45,18.9,19.5
 2003/04/06,12:30,20.8,43,18.8,19.5
 2003/04/06,12:45,20.8,43,19,19.4
 2003/04/06,13:00,20.7,43,18.9,19.5
 2003/04/06,13:15,20.7,42,18.9,19.5
 2003/04/06,13:30,20.7,42,19,19.5
 2003/04/06,13:45,20.6,42,18.9,19.5
 2003/04/06,14:00,20.6,43,19,19.4
 2003/04/06,14:15,20.6,42,19,19.4
 2003/04/06,14:30,20.6,42,19,19.3
 2003/04/06,14:45,20.6,43,19.1,19.5
 2003/04/06,15:00,20.6,44,19,19.5
 2003/04/06,15:15,20.6,44,19.1,19.5
 2003/04/06,15:30,20.6,45,19.3,19.6
 2003/04/06,15:45,20.7,44,19.3,19.5
 2003/04/06,16:00,20.5,38,19.1,19.5
 2003/04/06,16:15,20.7,42,19.1,19.7
 2003/04/06,16:30,20.7,42,19.3,19.7
 2003/04/06,16:45,20.7,40,19.4,19.7
 2003/04/06,17:00,20.8,39,19.6,19.6
 2003/04/06,17:15,20.7,38,19.8,19.6
 2003/04/06,17:30,20.6,39,19.9,19.6
 2003/04/06,17:45,20.6,37,19.6,19.6
 2003/04/06,18:00,20.5,42,19.6,19.6
 2003/04/06,18:15,20.8,42,19.5,19.6
 2003/04/06,18:30,21.2,43,19.2,19.6
 2003/04/06,18:45,21.2,45,19,19.6
 2003/04/06,19:00,21,48,19,19.6
 2003/04/06,19:15,21.1,46,18.9,19.6
 2003/04/06,19:30,21.1,46,18.8,19.6
 2003/04/06,19:45,21.2,44,18.7,19.5
 2003/04/06,20:00,21.1,47,18.7,19.5
 2003/04/06,20:15,21.3,46,18.7,19.4
 2003/04/06,20:30,21.4,48,18.8,19.4
 2003/04/06,20:45,21.4,48,18.8,19.4
 2003/04/06,21:00,21.5,50,18.8,19.4
 2003/04/06,21:15,21.6,50,18.8,19.4
 2003/04/06,21:30,21.5,49,18.8,19.4
 2003/04/06,21:45,21.4,50,18.9,19.4
 2003/04/06,22:00,21.4,51,18.8,19.3
 2003/04/06,22:15,21.4,51,18.8,19.3
 2003/04/06,22:30,21.3,51,18.8,19.4
 2003/04/06,22:45,21.4,51,18.8,19.3
 2003/04/06,23:00,21.3,51,18.8,19.3
 2003/04/06,23:15,21.1,51,18.8,19.3
 2003/04/06,23:30,21.1,51,18.7,19.3
 2003/04/06,23:45,21,51,18.7,19.3
 2003/04/07, 0:00,21,52,18.7,19.3
 2003/04/07, 0:15,21,52,18.7,19.3
 2003/04/07, 0:30,20.9,52,18.6,19.3
 2003/04/07, 0:45,20.9,52,18.6,19.4
 2003/04/07, 1:00,20.4,53,18.8,19.5
 2003/04/07, 1:15,20.3,53,19,19.5
 2003/04/07, 1:30,20.3,53,19,19.6
 2003/04/07, 1:45,20.2,53,19,19.6
 2003/04/07, 2:00,20.2,53,18.9,19.6
 2003/04/07, 2:15,20.3,53,18.9,19.6
 2003/04/07, 2:30,20.2,52,19,19.6
 2003/04/07, 2:45,20.2,53,19,19.6
 2003/04/07, 3:00,20.1,53,18.9,19.6
 2003/04/07, 3:15,20.2,53,19,19.6
 2003/04/07, 3:30,20.1,53,18.9,19.6
 2003/04/07, 3:45,20.1,53,18.8,19.6
 2003/04/07, 4:00,20.1,53,18.7,19.6
 2003/04/07, 4:15,20.1,54,18.8,19.6
 2003/04/07, 4:30,20,53,18.8,19.6
 2003/04/07, 4:45,20,53,18.9,19.6
 2003/04/07, 5:00,20,53,18.9,19.6
 2003/04/07, 5:15,20,53,18.8,19.6
 2003/04/07, 5:30,20,54,18.8,19.6
 2003/04/07, 5:45,20,54,18.7,19.6
 2003/04/07, 6:00,20,54,18.7,19.6
 2003/04/07, 6:15,20.1,53,18.6,19.6
 2003/04/07, 6:30,20.3,53,18.8,19.6
 2003/04/07, 6:45,20.8,52,19.1,19.8
 2003/04/07, 7:00,21.2,51,19.2,19.8
 2003/04/07, 7:15,21.3,51,19.2,19.9
 2003/04/07, 7:30,21.5,50,19.3,20
 2003/04/07, 7:45,20.9,38,19.4,19.8
 2003/04/07, 8:00,21.4,48,19,19.9
 2003/04/07, 8:15,21.5,46,19.1,19.9
 2003/04/07, 8:30,21.5,45,19,19.9
 2003/04/07, 8:45,21.5,44,18.9,19.9
 2003/04/07, 9:00,21.5,43,18.9,19.9
 2003/04/07, 9:15,21.3,43,18.8,19.8
 2003/04/07, 9:30,21.2,43,18.9,19.8
 2003/04/07, 9:45,21.1,44,19.1,19.8
 2003/04/07,10:00,21.1,45,19,19.8
 2003/04/07,10:15,21.1,45,19.1,19.8
 2003/04/07,10:30,21,46,19.3,19.8
 2003/04/07,10:45,21,46,19.4,19.9
 2003/04/07,11:00,21,46,19.3,19.8
 2003/04/07,11:15,21,47,19.5,19.9
 2003/04/07,11:30,20.9,47,19.4,19.9
 2003/04/07,11:45,20.9,46,19.4,19.9
 2003/04/07,12:00,20.9,46,19.5,19.9
 2003/04/07,12:15,21,46,19.5,19.9
 2003/04/07,12:30,20.9,46,19.5,19.9
 2003/04/07,12:45,20.9,46,19.7,19.9
 2003/04/07,13:00,21,46,19.6,19.9
 2003/04/07,13:15,20.9,45,19.6,19.9
 2003/04/07,13:30,20.9,45,19.7,20
 2003/04/07,13:45,21,45,19.7,20
 2003/04/07,14:00,21,44,19.7,20
 2003/04/07,14:15,21.1,43,19.8,20
 2003/04/07,14:30,21,43,19.9,20
 2003/04/07,14:45,21,42,19.9,20
 2003/04/07,15:00,21.1,42,20,20.1
 2003/04/07,15:15,21,43,20,20.1
 2003/04/07,15:30,21,43,20,20.1
 2003/04/07,15:45,21,42,19.9,20.1
 2003/04/07,16:00,21.1,41,19.9,20.1
 2003/04/07,16:15,21,40,19.9,20.1
 2003/04/07,16:30,21,40,19.8,20.1
 2003/04/07,16:45,20.9,40,19.8,20.1
 2003/04/07,17:00,20.9,41,19.9,20.1
 2003/04/07,17:15,20.9,41,19.9,20.1
 2003/04/07,17:30,20.8,42,19.8,20
 2003/04/07,17:45,20.8,43,19.8,20
 2003/04/07,18:00,20.8,42,19.8,20
 2003/04/07,18:15,20.8,42,19.9,20
 2003/04/07,18:30,20.7,42,19.7,20
 2003/04/07,18:45,20.8,43,19.7,20
 2003/04/07,19:00,20.7,43,19.7,20
 2003/04/07,19:15,20.7,44,19.8,20
 2003/04/07,19:30,20.7,44,19.7,20
 2003/04/07,19:45,20.7,44,19.7,20
 2003/04/07,20:00,20.7,44,19.7,20
 2003/04/07,20:15,20.7,45,19.7,20
 2003/04/07,20:30,20.7,46,19.7,20
 2003/04/07,20:45,20.7,46,19.7,20